GW0328 Weather Reports


time (UTC)temp
C
wind
direction
speed
KPH
gust
KPH
rain 1hr
cm
rain 24hr
cm
rain mn
cm
humidity
%
barometer
mb
20260503110615 -1 142 1.6 1.6 0.00 0.00 0.00 99 1015.2
20260503110112 -2 141 1.6 1.6 0.00 0.00 0.00 99 1015.4
20260503090502 -1 142 0.0 0.0 0.00 0.00 0.00 99 1015.0
20260503081428 -1 150 0.0 1.6 0.00 0.00 0.00 99 1014.8
20260503080925 -1 151 0.0 0.0 0.00 0.00 0.00 99 1014.9
20260503080421 -1 141 1.6 1.6 0.00 0.00 0.00 99 1014.8
20260503072858 0 155 0.0 1.6 0.00 0.00 0.00 98 1014.6
20260503072355 0 152 0.0 0.0 0.00 0.00 0.00 98 1014.7
20260503071851 0 152 0.0 0.0 0.00 0.00 0.00 98 1014.6
20260503071349 0 159 0.0 0.0 0.00 0.00 0.00 98 1014.8
20260503070844 0 156 0.0 0.0 0.00 0.00 0.00 98 1014.6
20260503070343 0 157 0.0 0.0 0.00 0.00 0.00 98 1014.5
20260503060314 0 160 0.0 0.0 0.00 0.00 0.00 98 1014.8
20260503054801 0 150 0.0 0.0 0.00 0.00 0.00 98 1014.8
20260503054257 0 148 0.0 1.6 0.00 0.00 0.00 98 1014.9
20260503053755 0 152 0.0 1.6 0.00 0.00 0.00 98 1014.8
20260503053254 0 150 0.0 1.6 0.00 0.00 0.00 98 1014.9
20260503052749 0 154 0.0 0.0 0.00 0.00 0.00 98 1014.9
20260503052248 0 152 0.0 0.0 0.00 0.00 0.00 97 1014.9
20260503051742 0 154 0.0 0.0 0.00 0.00 0.00 97 1014.9
20260503051240 0 152 0.0 0.0 0.00 0.00 0.00 97 1014.9
20260503050736 0 143 0.0 1.6 0.00 0.00 0.00 97 1014.9
20260503050232 0 142 0.0 1.6 0.00 0.00 0.00 97 1014.9
20260503045730 0 144 0.0 1.6 0.00 0.00 0.00 97 1015.1
20260503045228 0 138 1.6 1.6 0.00 0.00 0.00 97 1014.9
20260503044724 0 141 0.0 0.0 0.00 0.00 0.00 97 1014.7
20260503044221 0 141 0.0 1.6 0.00 0.00 0.00 97 1015.0
20260503043718 0 141 0.0 0.0 0.00 0.00 0.00 97 1015.1
20260503043216 0 140 0.0 1.6 0.00 0.00 0.00 97 1015.0
20260503042711 0 141 0.0 0.0 0.00 0.00 0.00 97 1014.9
20260503042208 0 141 0.0 1.6 0.00 0.00 0.00 97 1015.1
20260503041704 0 141 0.0 1.6 0.00 0.00 0.00 96 1014.8
20260503041202 0 141 0.0 1.6 0.00 0.00 0.00 96 1015.1
20260503040659 0 141 0.0 0.0 0.00 0.00 0.00 96 1015.0
20260503040157 0 141 0.0 0.0 0.00 0.00 0.00 96 1015.0
20260503035653 0 140 0.0 1.6 0.00 0.00 0.00 96 1015.0
20260503035151 0 138 1.6 1.6 0.00 0.00 0.00 96 1015.1
20260503034648 0 141 0.0 1.6 0.00 0.00 0.00 96 1015.1
20260503034145 1 142 0.0 1.6 0.00 0.00 0.00 95 1014.7
20260503033642 1 143 0.0 0.0 0.00 0.00 0.00 95 1015.1
20260503033140 1 142 1.6 1.6 0.00 0.00 0.00 95 1015.0
20260503032638 1 143 0.0 0.0 0.00 0.00 0.00 95 1014.9
20260503032136 1 143 0.0 0.0 0.00 0.00 0.00 95 1015.0
20260503031633 1 142 0.0 1.6 0.00 0.00 0.00 94 1015.1
20260503031131 1 143 0.0 0.0 0.00 0.00 0.00 94 1015.0